Terug naar catalogus

STARLINK-37647

ActiefCommunicatieVLEO
NORAD 69207·PAYLOAD·🇺🇸 United States

Gelanceerd May 25, 2026 vanaf Cape Canaveral Space Force Station

Loading…

Volgende Passages (komende 24 uur)

TLE

VersSource: CelesTrak SupGP

Epoch: Sep 15, 2026, 03:06 UTC

1 69207C 26114AB  26258.12965278  .00055258  00000+0  16324-2 0  2581
2 69207  53.1572 138.6281 0001210  73.1203 313.7093 15.34366619    19

Volg STARLINK-37647 in realtime met AllMySat

Download on the App Store